CST,Max TemperatureF,Mean TemperatureF,Min TemperatureF,Max Dew PointF,MeanDew PointF,Min DewpointF,Max Humidity, Mean Humidity, Min Humidity, Max Sea Level PressureIn, Mean Sea Level PressureIn, Min Sea Level PressureIn, Max VisibilityMiles, Mean VisibilityMiles, Min VisibilityMiles, Max Wind SpeedMPH, Mean Wind SpeedMPH, Max Gust SpeedMPH,PrecipitationIn, CloudCover, Events, WindDirDegrees
2013-1-1,41,37,33,41,37,32,100,97,87,30.27,30.18,30.06,10,5,2,13,1,16,0.00,8,Rain,309
2013-1-2,37,30,24,32,29,23,100,86,65,30.32,30.29,30.24,10,8,5,6,1,,0.00,3,,261
2013-1-3,44,32,21,32,28,21,100,87,57,30.49,30.42,30.31,10,9,5,9,1,,0.00,0,,351
2013-1-4,48,36,23,32,29,23,100,81,43,30.53,30.45,30.37,10,10,7,5,1,,0.00,2,,203
2013-1-5,51,42,32,37,34,30,100,82,58,30.37,30.30,30.23,10,10,7,13,2,18,0.00,6,,210
2013-1-6,51,38,26,36,30,25,100,78,41,30.40,30.35,30.29,10,9,3,9,3,,0.00,0,,294
2013-1-7,55,38,21,34,28,21,100,80,38,30.39,30.28,30.15,10,10,10,0,0,,0.00,0,,-1
2013-1-8,59,46,32,52,40,30,100,86,54,30.20,30.13,30.06,10,9,2,7,0,,0.31,7,Rain,358
2013-1-9,55,50,44,54,50,45,100,97,93,30.29,30.23,30.14,10,6,2,12,4,18,0.12,8,Rain,32
2013-1-10,62,53,44,61,52,43,100,93,77,30.16,29.95,29.84,10,9,2,13,3,,0.03,7,Rain,278
2013-1-11,71,54,37,52,46,37,100,71,38,29.95,29.87,29.78,10,10,7,22,5,25,0.00,0,,194
2013-1-12,60,48,35,57,47,34,100,92,72,29.95,29.85,29.76,10,9,2,14,3,24,0.58,5,Rain-Thunderstorm,291
2013-1-13,37,32,28,34,27,23,93,80,65,30.35,30.18,29.95,10,10,7,17,10,22,0.00,4,Snow,343
2013-1-14,41,32,23,27,22,19,93,73,45,30.46,30.36,30.31,10,10,10,10,3,16,0.00,1,,23
2013-1-15,35,29,23,32,27,21,93,86,75,30.34,30.25,30.18,10,10,4,8,1,,0.00,5,Snow,16
2013-1-16,44,32,21,28,24,21,100,76,39,30.28,30.21,30.14,10,10,7,5,0,,0.00,1,,282
2013-1-17,55,40,24,37,30,25,100,78,44,30.51,30.37,30.23,10,10,10,13,2,16,0.00,1,,344
2013-1-18,59,41,23,36,30,23,100,69,31,30.54,30.42,30.27,10,10,7,14,2,18,0.00,0,,195
2013-1-19,66,52,37,41,36,32,93,62,37,30.27,30.21,30.13,10,10,10,14,6,22,0.00,0,,210
2013-1-20,66,49,32,46,39,32,100,78,46,30.26,30.19,30.11,10,9,2,7,1,,0.00,0,,157
2013-1-21,51,42,28,39,25,19,86,53,33,30.37,30.30,30.18,10,10,10,13,7,18,0.00,2,,6
2013-1-22,53,38,23,32,28,23,100,71,41,30.38,30.30,30.23,10,10,2,8,0,,0.00,2,,232
2013-1-23,68,50,32,52,38,27,100,79,52,30.30,30.23,30.14,10,10,7,5,0,,0.00,1,,167
2013-1-24,51,45,39,46,38,32,100,76,57,30.30,30.20,30.13,10,9,7,10,2,17,0.00,6,,74
2013-1-25,42,37,32,39,36,32,100,92,81,30.26,30.21,30.11,10,5,1,14,5,,0.00,6,,15
2013-1-26,51,42,32,45,36,32,100,77,47,30.27,30.22,30.17,10,7,0,6,1,,0.00,7,Fog,100
2013-1-27,68,58,48,61,52,45,100,86,77,30.15,30.05,29.97,10,10,4,14,3,21,0.02,7,Rain,181
2013-1-28,77,72,66,66,64,63,88,78,69,30.02,29.95,29.86,10,10,10,23,13,30,0.00,7,,182
2013-1-29,71,61,51,68,62,50,100,87,73,29.86,29.66,29.46,10,9,2,23,11,33,1.73,7,Rain-Thunderstorm,191
2013-1-30,51,42,32,52,35,28,100,78,57,30.11,29.87,29.56,10,10,7,20,8,32,0.00,4,,284
2013-1-31,64,45,26,32,29,19,100,66,24,30.44,30.18,30.06,10,10,7,22,5,30,0.00,0,,253